Regional Weather Roundup
Issued by NWS

Home | Current Version | Previous Version | Text Only | Print | Product List | Glossary On
Versions: 1 2 3 4 5 6 7 8 9 10 11 12 13 14 15 16 17 18 19 20 21 22 23 24 25 26 27 28 29 30 31 32 33 34 35 36 37 38 39 40 41 42 43 44 45 46 47 48 49 50
000
ASUS43 KLMK 221402
RWRKY
KENTUCKY REGIONAL WEATHER ROUNDUP
NATIONAL WEATHER SERVICE LOUISVILLE KY
1000 AM EDT TUE JUL 22 2014

NOTE "FAIR" INDICATES FEW OR NO CLOUDS BELOW 12,000 FEET
WITH NO SIGNIFICANT WEATHER AND/OR OBSTRUCTIONS TO VISIBILITY.

KYZ001>023-026-027-061>063-070>075-221500-
WESTERN AND SOUTH CENTRAL KENTUCKY

CITY           SKY/WX    TMP DP  RH WIND       PRES   REMARKS
PADUCAH        SUNNY     82  68  62 CALM      30.09F
HENDERSON      SUNNY     79  70  73 E3        30.08F
OWENSBORO      SUNNY     82  69  64 S5        30.10F
HOPKINSVILLE   SUNNY     82  72  69 SE6       30.10F
BOWLING GREEN  SUNNY     82  71  69 SW6       30.12S
GLASGOW        SUNNY     80  70  71 SW6       30.13F
$$

KYZ024-025-028>034-038-045-046-053-221500-
NORTH CENTRAL KENTUCKY

CITY           SKY/WX    TMP DP  RH WIND       PRES   REMARKS
LOUISVILLE/SDF MOSUNNY   82  69  64 CALM      30.10F
LOUISVILLE/LOU SUNNY     81  69  67 CALM      30.11F
FORT KNOX      SUNNY     80  71  74 SE2       30.11S
$$

KYZ035>037-039>044-047>052-055>060-089>105-221500-
NORTHEAST KENTUCKY

CITY           SKY/WX    TMP DP  RH WIND       PRES   REMARKS
LEXINGTON      SUNNY     80  72  76 S7        30.14S
COVINGTON      MOSUNNY   81  71  71 S6        30.13F
FRANKFORT      SUNNY     79  71  76 CALM      30.12F
$$

KYZ054-064>069-076>088-106>120-221500-
SOUTHEAST KENTUCKY

CITY           SKY/WX    TMP DP  RH WIND       PRES   REMARKS
JACKSON        SUNNY     77  68  73 VRB3      30.18S
LONDON         SUNNY     79  68  69 SW6       30.18S
SOMERSET       SUNNY     77  72  83 SW5       30.16F
MIDDLESBORO    MOSUNNY   77  68  72 CALM      30.18F
MONTICELLO     SUNNY     81  73  76 SW7       30.17F
$$




USA.gov is the U.S. government's official web portal to all federal, state and local government web resources and services.